History for KNYNEWYO91

Midtown East, New York, NY — Current Conditions
Daily Summary for August 22, 2017
  Current: High: Low: Average:
Temperature: 86.1°F 86.7°F 76.6°F 81.6°F
Dew Point: 70.0°F 74.0°F 68.0°F 70.4°F
Humidity: 59% 80% 59% 73%
Wind Speed: - 0.0mph - 0.0mph
Wind Gust: - 0.0mph - -
Wind: North - - North
Pressure: 29.86in 30.14in 29.85in -
Precipitation: 0.00in      
Statistics for the rest of the month
    High: Low: Average:
Temperature:   86.7°F 67.4°F 76.5°F
Dew Point:   75.0°F 50.0°F 62.1°F
Humidity:   91.0% 43.0% 62.2%
Wind Speed:   0.0mph from the North - 0.0mph
Wind Gust:   0.0mph from the North - -
Wind:   - - North
Pressure:   30.35in 29.82in -
Precipitation:   0.00in    
KNYNEWYO91 Weather Graph
Tabular Data for August 22, 2017
Time Temp. Heat Index Dew Point Pressure Wind Gust Humidity Rainfall
00:02 78.4°F - 68.0°F 30.14in - 70% -
00:07 78.2°F - 68.0°F 30.13in - 70% -
00:12 78.4°F - 68.0°F 30.13in - 70% -
00:17 78.4°F - 68.0°F 30.13in - 70% -
00:22 78.4°F - 68.0°F 30.13in - 70% -
00:27 78.4°F - 68.0°F 30.13in - 70% -
00:32 78.4°F - 68.0°F 30.13in - 70% -
00:37 78.4°F - 68.0°F 30.13in - 71% -
00:42 78.4°F - 68.0°F 30.12in - 71% -
00:47 78.2°F - 68.0°F 30.12in - 73% -
00:52 78.0°F - 69.0°F 30.12in - 74% -
00:57 77.8°F - 68.0°F 30.12in - 73% -
01:02 78.0°F - 69.0°F 30.12in - 74% -
01:07 77.8°F - 68.0°F 30.12in - 74% -
01:12 78.0°F - 69.0°F 30.12in - 74% -
01:17 77.8°F - 68.0°F 30.12in - 74% -
01:22 77.8°F - 68.0°F 30.12in - 74% -
01:27 77.8°F - 68.0°F 30.11in - 74% -
01:32 77.8°F - 68.0°F 30.11in - 74% -
01:37 77.8°F - 68.0°F 30.11in - 74% -
01:42 77.8°F - 68.0°F 30.11in - 74% -
01:47 78.0°F - 69.0°F 30.11in - 74% -
01:52 78.0°F - 69.0°F 30.11in - 74% -
01:57 78.0°F - 69.0°F 30.10in - 74% -
02:02 78.2°F - 68.0°F 30.10in - 73% -
02:07 78.2°F - 68.0°F 30.10in - 73% -
02:12 78.0°F - 69.0°F 30.10in - 74% -
02:17 77.8°F - 68.0°F 30.10in - 74% -
02:22 77.8°F - 68.0°F 30.10in - 74% -
02:27 77.8°F - 68.0°F 30.10in - 74% -
02:32 78.0°F - 69.0°F 30.10in - 74% -
02:37 77.8°F - 68.0°F 30.10in - 74% -
02:41 77.8°F - 68.0°F 30.09in - 74% -
02:46 77.8°F - 68.0°F 30.10in - 74% -
02:51 77.5°F - 68.0°F 30.10in - 75% -
02:56 77.5°F - 68.0°F 30.09in - 75% -
03:01 77.5°F - 69.0°F 30.09in - 75% -
03:06 77.5°F - 69.0°F 30.09in - 75% -
03:11 77.5°F - 69.0°F 30.09in - 75% -
03:16 77.5°F - 69.0°F 30.09in - 75% -
03:21 77.3°F - 69.0°F 30.09in - 76% -
03:26 77.3°F - 69.0°F 30.08in - 75% -
03:31 77.3°F - 69.0°F 30.08in - 75% -
03:36 77.3°F - 69.0°F 30.08in - 75% -
03:41 77.3°F - 69.0°F 30.08in - 76% -
03:46 77.3°F - 69.0°F 30.07in - 76% -
03:51 77.5°F - 69.0°F 30.07in - 76% -
03:56 77.3°F - 69.0°F 30.08in - 76% -
04:01 77.3°F - 69.0°F 30.07in - 76% -
04:06 77.5°F - 69.0°F 30.07in - 76% -
04:11 77.3°F - 69.0°F 30.07in - 76% -
04:16 77.3°F - 69.0°F 30.07in - 76% -
04:21 76.9°F - 69.0°F 30.08in - 76% -
04:26 76.9°F - 69.0°F 30.07in - 78% -
04:31 76.9°F - 69.0°F 30.07in - 78% -
04:36 76.6°F - 69.0°F 30.07in - 79% -
04:41 76.9°F - 69.0°F 30.07in - 78% -
04:46 76.9°F - 69.0°F 30.07in - 78% -
04:51 76.9°F - 69.0°F 30.07in - 78% -
04:56 76.9°F - 69.0°F 30.07in - 78% -
05:01 76.9°F - 69.0°F 30.07in - 78% -
05:06 77.1°F - 69.0°F 30.06in - 78% -
05:11 77.1°F - 69.0°F 30.06in - 78% -
05:16 77.1°F - 69.0°F 30.06in - 78% -
05:21 77.3°F - 69.0°F 30.06in - 78% -
05:26 77.3°F - 69.0°F 30.06in - 78% -
05:31 76.9°F - 69.0°F 30.07in - 78% -
05:35 76.6°F - 69.0°F 30.08in - 79% -
05:40 76.6°F - 69.0°F 30.06in - 79% -
05:45 76.9°F - 69.0°F 30.07in - 79% -
05:50 76.9°F - 69.0°F 30.06in - 79% -
05:55 76.6°F - 69.0°F 30.07in - 79% -
06:00 76.9°F - 69.0°F 30.06in - 79% -
06:05 76.6°F - 69.0°F 30.06in - 79% -
06:10 76.9°F - 69.0°F 30.06in - 79% -
06:15 76.9°F - 69.0°F 30.07in - 79% -
06:20 76.6°F - 69.0°F 30.06in - 79% -
06:25 76.6°F - 69.0°F 30.07in - 79% -
06:30 76.9°F - 69.0°F 30.07in - 79% -
06:35 77.1°F - 70.0°F 30.06in - 79% -
06:40 77.3°F - 70.0°F 30.07in - 79% -
06:45 77.3°F - 69.0°F 30.07in - 78% -
06:50 77.3°F - 69.0°F 30.07in - 78% -
06:55 77.1°F - 69.0°F 30.06in - 78% -
07:00 77.3°F - 69.0°F 30.06in - 78% -
07:05 77.5°F - 70.0°F 30.05in - 78% -
07:10 77.8°F - 70.0°F 30.12in - 78% -
07:15 77.8°F - 70.0°F 30.08in - 78% -
07:20 77.8°F - 70.0°F 30.11in - 76% -
07:25 77.8°F - 70.0°F 30.10in - 76% -
07:30 78.0°F - 70.0°F 30.12in - 76% -
07:35 77.8°F - 69.0°F 30.11in - 75% -
07:40 78.0°F - 69.0°F 30.09in - 75% -
07:45 78.2°F - 70.0°F 30.12in - 75% -
07:50 78.0°F - 70.0°F 30.08in - 76% -
07:55 77.5°F - 69.0°F 30.08in - 76% -
08:00 77.3°F - 69.0°F 30.12in - 76% -
08:05 77.1°F - 69.0°F 30.10in - 76% -
08:10 76.9°F - 69.0°F 30.09in - 76% -
08:15 76.9°F - 69.0°F 30.12in - 79% -
08:20 76.9°F - 70.0°F 30.09in - 80% -
08:25 76.6°F - 70.0°F 30.11in - 80% -
08:30 77.1°F - 70.0°F 30.09in - 79% -
08:35 77.3°F - 70.0°F 30.08in - 79% -
08:40 77.3°F - 70.0°F 30.11in - 79% -
08:45 77.3°F - 70.0°F 30.11in - 79% -
08:50 77.5°F - 70.0°F 30.08in - 79% -
08:55 77.8°F - 70.0°F 30.11in - 79% -
09:00 78.0°F - 70.0°F 30.12in - 78% -
09:05 78.4°F - 71.0°F 30.07in - 78% -
09:10 78.4°F - 71.0°F 30.07in - 78% -
09:15 78.8°F - 71.0°F 30.10in - 78% -
09:20 78.4°F - 70.0°F 30.09in - 76% -
09:25 78.4°F - 70.0°F 30.07in - 76% -
09:30 78.8°F - 70.0°F 30.11in - 76% -
09:35 78.9°F - 71.0°F 30.10in - 76% -
09:40 78.9°F - 71.0°F 30.07in - 76% -
09:45 79.1°F - 71.0°F 30.09in - 76% -
09:50 79.1°F - 71.0°F 30.09in - 76% -
09:55 79.1°F - 71.0°F 30.11in - 76% -
10:00 79.1°F - 71.0°F 30.06in - 76% -
10:05 78.9°F - 71.0°F 30.06in - 76% -
10:10 78.9°F - 71.0°F 30.06in - 76% -
10:15 78.9°F - 71.0°F 30.09in - 78% -
10:20 78.8°F - 71.0°F 30.07in - 78% -
10:25 78.8°F - 71.0°F 30.08in - 78% -
10:35 78.9°F - 71.0°F 30.06in - 78% -
10:40 78.9°F - 71.0°F 30.09in - 78% -
10:45 79.1°F - 71.0°F 30.05in - 78% -
10:50 79.1°F - 71.0°F 30.05in - 78% -
10:55 79.1°F - 71.0°F 30.09in - 78% -
11:00 79.3°F - 71.0°F 30.06in - 78% -
11:05 79.3°F - 71.0°F 30.07in - 78% -
11:10 80.0°F 83.7°F 72.0°F 30.08in - 78% -
11:15 80.2°F 84.1°F 72.0°F 30.08in - 76% -
11:20 80.5°F 84.5°F 72.0°F 30.06in - 76% -
11:25 80.2°F 84.1°F 72.0°F 30.08in - 76% -
11:30 80.2°F 84.1°F 72.0°F 30.06in - 76% -
11:35 80.2°F 84.1°F 72.0°F 30.07in - 76% -
11:40 80.2°F 84.1°F 72.0°F 30.08in - 76% -
11:45 80.2°F 84.1°F 72.0°F 30.06in - 76% -
11:50 80.2°F 84.1°F 72.0°F 30.04in - 76% -
11:55 80.5°F 84.5°F 72.0°F 30.06in - 75% -
12:00 80.7°F 84.9°F 72.0°F 30.05in - 75% -
12:05 80.9°F 85.1°F 72.0°F 30.05in - 75% -
12:10 81.1°F 85.5°F 72.0°F 30.04in - 75% -
12:15 81.4°F 85.9°F 72.0°F 30.05in - 75% -
12:20 81.6°F 86.3°F 72.0°F 30.05in - 75% -
12:21 81.8°F 87.1°F 73.0°F 30.01in - 75% -
12:26 82.0°F 87.3°F 73.0°F 30.04in - 75% -
12:31 82.0°F 87.3°F 73.0°F 30.04in - 75% -
12:36 82.0°F 87.3°F 73.0°F 30.02in - 75% -
12:41 82.3°F 87.7°F 73.0°F 30.04in - 74% -
12:46 82.5°F 88.1°F 73.0°F 30.03in - 74% -
12:51 82.3°F 87.7°F 73.0°F 30.03in - 74% -
12:56 82.5°F 88.1°F 73.0°F 30.03in - 74% -
13:01 82.5°F 88.1°F 73.0°F 30.00in - 74% -
13:06 82.7°F 88.3°F 73.0°F 30.03in - 74% -
13:11 82.7°F 88.3°F 73.0°F 30.03in - 74% -
13:16 82.7°F 88.3°F 73.0°F 30.03in - 74% -
13:21 82.7°F 88.3°F 73.0°F 30.01in - 74% -
13:26 82.7°F 88.3°F 73.0°F 30.03in - 74% -
13:31 82.7°F 88.3°F 73.0°F 30.02in - 74% -
13:36 82.7°F 88.3°F 73.0°F 30.02in - 73% -
13:41 83.1°F 88.9°F 73.0°F 29.99in - 73% -
13:46 83.1°F 88.9°F 73.0°F 30.02in - 73% -
13:51 83.1°F 88.9°F 73.0°F 30.02in - 73% -
13:56 83.1°F 88.9°F 73.0°F 29.99in - 73% -
14:01 83.1°F 88.9°F 73.0°F 30.01in - 71% -
14:06 83.2°F 89.1°F 73.0°F 30.00in - 71% -
14:11 83.2°F 89.1°F 73.0°F 30.01in - 71% -
14:16 83.2°F 89.1°F 73.0°F 29.96in - 71% -
14:21 83.6°F 89.6°F 73.0°F 29.96in - 71% -
14:26 83.8°F 90.0°F 73.0°F 29.99in - 70% -
14:31 83.6°F 89.6°F 73.0°F 29.99in - 70% -
14:36 83.8°F 90.0°F 73.0°F 29.99in - 70% -
14:41 84.2°F 90.6°F 73.0°F 29.95in - 70% -
14:47 84.3°F 90.8°F 73.0°F 29.94in - 69% -
14:52 84.3°F 90.8°F 73.0°F 29.98in - 69% -
14:57 84.5°F 90.9°F 73.0°F 29.96in - 69% -
15:02 84.5°F 90.9°F 73.0°F 29.96in - 69% -
15:07 84.9°F 92.5°F 74.0°F 29.97in - 70% -
15:12 84.9°F 92.5°F 74.0°F 29.93in - 70% -
15:16 84.9°F 91.4°F 73.0°F 29.93in - 69% -
15:21 85.1°F 91.8°F 73.0°F 29.95in - 68% -
15:26 85.1°F 91.8°F 73.0°F 29.94in - 68% -
15:31 85.1°F 91.8°F 73.0°F 29.94in - 68% -
15:36 85.1°F 91.8°F 73.0°F 29.94in - 68% -
15:41 85.4°F 92.1°F 73.0°F 29.93in - 66% -
15:46 85.4°F 92.1°F 73.0°F 29.95in - 66% -
15:51 85.6°F 92.5°F 73.0°F 29.90in - 66% -
15:56 85.6°F 91.8°F 72.0°F 29.89in - 65% -
16:01 85.6°F 91.8°F 72.0°F 29.93in - 65% -
16:06 86.0°F 92.2°F 72.0°F 29.93in - 63% -
16:11 86.0°F 92.2°F 72.0°F 29.92in - 63% -
16:17 86.0°F 91.5°F 71.0°F 29.92in - 61% -
16:22 86.0°F 91.5°F 71.0°F 29.92in - 63% -
16:27 86.0°F 91.5°F 71.0°F 29.92in - 63% -
16:32 86.0°F 91.5°F 71.0°F 29.89in - 63% -
16:37 86.1°F 90.6°F 70.0°F 29.91in - 59% -
16:42 86.5°F 92.1°F 71.0°F 29.91in - 61% -
16:47 86.3°F 91.7°F 71.0°F 29.91in - 61% -
16:52 86.3°F 91.7°F 71.0°F 29.91in - 61% -
16:57 86.3°F 91.7°F 71.0°F 29.90in - 61% -
17:02 86.5°F 92.1°F 71.0°F 29.88in - 61% -
17:07 86.5°F 92.1°F 71.0°F 29.91in - 60% -
17:12 86.7°F 91.3°F 70.0°F 29.91in - 59% -
17:17 86.3°F 90.9°F 70.0°F 29.88in - 59% -
17:22 86.0°F 90.7°F 70.0°F 29.91in - 59% -
17:27 86.0°F 90.7°F 70.0°F 29.91in - 59% -
17:32 86.1°F 90.6°F 70.0°F 29.90in - 60% -
17:37 86.1°F 90.6°F 70.0°F 29.86in - 60% -
17:42 86.0°F 90.7°F 70.0°F 29.86in - 60% -
17:47 85.6°F 90.0°F 70.0°F 29.90in - 60% -
17:52 85.4°F 89.3°F 69.0°F 29.88in - 60% -
17:57 85.6°F 90.0°F 70.0°F 29.86in - 60% -
18:02 86.0°F 90.7°F 70.0°F 29.89in - 60% -
18:07 86.1°F 90.6°F 70.0°F 29.85in - 59% -
18:12 86.1°F 90.6°F 70.0°F 29.86in - 59% -
18:17 86.0°F 90.7°F 70.0°F 29.85in - 60% -
18:22 86.1°F 90.6°F 70.0°F 29.86in - 59% -
Comma Delimited File
Powered by Weather Underground, Inc.